Regional Weather Roundup
Issued by NWS

Home | Current Version | Previous Version | Graphics & Text | Print | Product List | Glossary On
Versions: 1 2 3 4 5 6 7 8 9 10 11 12 13 14 15 16 17 18 19 20 21 22 23 24 25 26 27 28 29 30 31 32 33 34 35 36 37 38 39 40 41 42 43 44 45 46 47 48 49 50
000
ASUS45 KTFX 171504
RWRMT
MONTANA HOURLY WEATHER ROUNDUP
NATIONAL WEATHER SERVICE GREAT FALLS MT
804 AM MST WED DEC 17 2014

NOTE: "FAIR" INDICATES FEW OR NO CLOUDS BELOW 12000 FEET WITH NO
SIGNIFICANT WEATHER AND/OR OBSTRUCTIONS TO VISIBILITY.

* THESE STATIONS ARE NOT UNDER NWS QUALITY CONTROL. THEY DO NOT
   REPORT WEATHER SUCH AS PRECIPITATION OR FOG.

MTZ001>007-043-171600-
WEST OF THE DIVIDE
CITY           SKY/WX    TMP DP  RH WIND       PRES   REMARKS
KALISPELL      CLOUDY    27  25  92 CALM      29.97S
MISSOULA       CLOUDY    27  23  85 CALM      29.99S
BUTTE          CLOUDY    25  21  85 CALM      29.93S
MULLAN PASS    FOG       27  25  92 S7        29.85F VSB 2 1/2 WCI  19
* ANACONDA     PTCLDY    28  21  75 SE6        N/A   WCI  21
* ESSEX        N/A       23  21  92 NE1        N/A
* LINCOLN      N/A       21  19  92 NE1        N/A
* LOOKOUT PASS N/A       24  23  96 SE2        N/A
* POLSON       N/A       27  26  96 N/A        N/A
* RONAN APT    PTSUNNY   28  27  96 N/A        N/A
* SEELEY LAKE  N/A       23  21  92 N/A        N/A
* THOMP F APT  PTCLDY    24  22  92 NE1        N/A
$$

MTZ008-052>055-171600-
SOUTHWEST MONTANA
CITY           SKY/WX    TMP DP  RH WIND       PRES   REMARKS
BOZEMAN        FOG       23  21  92 NW5       29.96S WCI  16
DILLON         CLOUDY    25  21  85 CALM      29.94S
* W YELLOWSTON PTCLDY    24  22  92 SW3        N/A
* THREE FORKS  PTSUNNY   21   1  41 N/A        N/A
* BOULDER HILL N/A       26  22  85 S8         N/A   WCI  18
* MONIDA PASS  N/A       22  22 100 SE8        N/A   WCI  13
* RAYNOLDS PAS N/A       23   8  52 S8         N/A   WCI  14
* WHITEHALL    N/A       26  24  92 N4         N/A
* WISE RIVER   N/A       19  16  88 W1         N/A
$$

MTZ009>010-012-014-046-048-049-054-171600-
EAST SLOPES AND CENTRAL MONTANA
CITY           SKY/WX    TMP DP  RH WIND       PRES   REMARKS
CUT BANK       FOG       19  16  88 E3        29.87F VSB M1/4
GREAT FALLS    CLOUDY    27  25  92 SW3       29.88F
HELENA         FOG       27  25  92 W3        29.95S VSB 3
* DEARBORN     N/A       28  25  89 SW1        N/A
* EAST GLACIER N/A       29  23  78 W18G27     N/A   WCI  17
* MONARCH      N/A       29  24  82 SW7        N/A   WCI  22
* PENDROY      N/A       19  18  96 W2         N/A
* ROGERS PASS  N/A       26  21  81 S4         N/A
* SWEET GRASS  N/A       20  20 100 S17        N/A   WCI   5
$$

MTZ011-013-016-021-035-040-045-047-050-051-171600-
NORTH CENTRAL MONTANA
CITY           SKY/WX    TMP DP  RH WIND       PRES   REMARKS
HAVRE          LGT SNOW  21  18  88 NE5       29.97S VSB 2 1/2 WCI  14
LEWISTOWN      CLOUDY    27  21  78 CALM      29.90F
* N BAR RANCH  CLOUDY    27  25  92 W3        29.89F
* CHESTER      N/A       22  20  92 N/A        N/A
* DENTON       N/A       22  21  96 E2         N/A
* GEYSER       N/A       29  28  96 S3         N/A
* JUDITH GAP   N/A       23  23 100 SE4        N/A
* LOMA         N/A       25  23  92 E9         N/A   WCI  16
$$

MTZ017>020-022>027-061-062-171600-
NORTHEAST MONTANA
CITY           SKY/WX    TMP DP  RH WIND       PRES   REMARKS
GLASGOW        CLOUDY    18  16  92 E14       30.06S WCI   4
GLENDIVE       CLOUDY    18  14  84 SE10      30.10F WCI   6
JORDAN         CLOUDY    21  19  92 SE7       30.02S WCI  12
SIDNEY         CLOUDY    18  14  84 SE13      30.17S WCI   5
WOLF POINT     CLOUDY    18  14  84 SE9       30.13S WCI   7
* BEAVER HILL  N/A       16  14  92 SE9        N/A   WCI   5
* CIRCLE       N/A       17  15  92 E5         N/A   WCI   9
* LINDSAY DVD  N/A       15  13  92 E8         N/A   WCI   4
* NAVAJO       N/A       14  12  92 SE9G16     N/A   WCI   2
* SACO         N/A       19  17  92 E11        N/A   WCI   7
$$

MTZ028>042-056>058-171600-
SOUTHCENTRAL AND SOUTHEAST MONTANA
CITY           SKY/WX    TMP DP  RH WIND       PRES   REMARKS
BAKER          CLOUDY    18  16  92 SE16      30.06F WCI   3
BILLINGS       FOG       21  19  92 SW6       29.96S VSB 1 1/2 WCI  13
LIVINGSTON     CLOUDY    28  25  89 NW9       29.93S WCI  19
MILES CITY     CLOUDY    21  18  88 SE9       30.05R WCI  11
* LAUREL APT   PTSUNNY   18  10  71 N/A        N/A
* ROUNDUP APT  CLOUDY    25  19  78 S5         N/A   WCI  19
* ALZADA       N/A       16  15  96 E4         N/A
* HYSHAM       N/A       18  16  92 W4         N/A
* LAME DEER    N/A       16  14  92 N/A        N/A
* REED POINT   N/A       21  20  96 SW3        N/A
* ROSCOE HILL  N/A       28  16  61 SW4        N/A
$$

REGIONAL REPORTS...DAKOTAS
CITY           SKY/WX    TMP DP  RH WIND       PRES   REMARKS
WILLISTON      CLOUDY    18  12  77 S12G21    30.17S WCI   5
DICKINSON      LGT SNOW  16  10  77 S10       30.13S WCI   4
BEACH          CLOUDY    16  16 100 S14G21    30.11R WCI   2
CROSBY         CLOUDY    18  16  92 S15       30.18S WCI   4
WATFORD CITY   CLOUDY    16  12  84 S12       30.16R WCI   3
BISMARCK       LGT SNOW  14  10  84 S6        30.29R WCI   5
GRAND FORKS    PTSUNNY    1  -2  87 CALM      30.38R
FARGO          PTCLDY     3   0  87 W7        30.37S WCI  -9
BUFFALO SD     PTCLDY    18  14  84 SE14      30.00S WCI   4
RAPID CITY     CLOUDY    19  18  96 SE8       30.04F WCI   9
$$

REGIONAL REPORTS...WYOMING/IDAHO/WASHINGTON
CITY           SKY/WX    TMP DP  RH WIND       PRES   REMARKS
GILLETTE       PTCLDY    10   9  96 S3        29.93S
SHERIDAN       FOG       16  12  84 SW5       29.96R VSB M1/4 WCI   8
CODY           CLOUDY    16  16 100 S5        29.90S WCI   8
YELLOWSTONE LA PTSUNNY   19  16  88 CALM      29.94F
SALMON         CLOUDY    25  21  85 CALM      30.00R
MULLAN PASS    FOG       27  25  92 S7        29.85S VSB 2 1/2 WCI  19
SAND POINT     CLOUDY    32  30  92 NE5       29.97S WCI  27
SPOKANE        PTSUNNY   32  30  92 NE7       29.92S WCI  25

$$




USA.gov is the U.S. government's official web portal to all federal, state and local government web resources and services.